Location: Spring Creek
(38.2870°N, 100.2160°W)
Time: 23:52:21
(UTC+00:00)

Cosmos 1975 Rocket - Pass Details

Date: 08 May 2021
Orbit: 604 x 633 km, 82.5° (Epoch: 21 June)

Event Time Altitude Azimuth Distance (km) Brightness Sun altitude
Exits shadow 08:39:32 45° 78° (ENE) 847 3.9 -27.6°
Drops below altitude 10° 08:43:22 10° 20° (NNE) 1,974 6.6 -27.1°
Sets 08:45:39 0° 15° (NNE) 2,879 7.6 -26.9°
